Find Gao Fen 13-02

NORAD ID: 55912 Int'l Des: 2023-036 Owner: YWZB Country: CN operational
HEOCIRCULARGSO

Live-Position

3D-Globus wird geladen...

Über Gao Fen 13-02

Beschreibung wird geladen...

Nächste Überflüge

Passes for default location (London). Set your location on the main map for personalized predictions.

Höhenverlauf

Loading altitude history...

Zweizeiliger Elementsatz

1 55912U 23036A 26131.20544620 -.00000209 00000-0 00000+0 0 9993
2 55912 1.0186 356.3584 0004517 340.5775 114.2894 1.00272483 11729
Epoch: 11. Mai 2026 • Age: 8 hours

Aktueller Status

Höhe 35797.7 km
Geschwindigkeit 3.07 km/s
Subsatellitenpunkt -0.57°S, 148.21°E
Startdatum 17. März 2023
Alter 3.1 years
Typ other

Technische Details

Klassifizierung Payload
Masse 4600.00 kg
Trockenmasse 2500.00 kg
Gesamtmasse 4600.00 kg
Länge 5.00 m
Durchmesser 2.50 m
Spannweite 30.00 m
Form Box + 2 Pan
Hersteller CAST
Bus-Typ DFH-4
Phasenstatus In Orbit
Besitzer/Staat YWZB/CN

Most Searched